| time (UTC) | temp C | wind direction | speed KPH | gust KPH | rain 1hr cm | rain 24hr cm | rain mn cm | humidity % | barometer mb |
| 20260905205004 | 36 | 340 | 3.2 | 11.3 | 0.00 | 0.13 | 0.13 | 45 | 1011.0 |
| 20260905204504 | 37 | 257 | 4.8 | 9.7 | 0.00 | 0.13 | 0.13 | 45 | 1011.2 |
| 20260905204005 | 37 | 255 | 4.8 | 11.3 | 0.00 | 0.13 | 0.13 | 45 | 1011.2 |
| 20260905203004 | 37 | 274 | 3.2 | 11.3 | 0.00 | 0.13 | 0.13 | 44 | 1011.2 |
| 20260905202004 | 36 | 307 | 4.8 | 12.9 | 0.00 | 0.13 | 0.13 | 45 | 1011.4 |
| 20260905201504 | 36 | 297 | 6.4 | 12.9 | 0.00 | 0.13 | 0.13 | 45 | 1011.5 |
| 20260905201005 | 36 | 316 | 4.8 | 12.9 | 0.00 | 0.13 | 0.13 | 45 | 1011.6 |
| 20260905200505 | 36 | 322 | 3.2 | 9.7 | 0.00 | 0.13 | 0.13 | 45 | 1011.6 |
| 20260905200004 | 36 | 251 | 3.2 | 11.3 | 0.00 | 0.13 | 0.13 | 46 | 1011.7 |
| 20260905195504 | 36 | 231 | 4.8 | 11.3 | 0.00 | 0.13 | 0.13 | 46 | 1011.7 |
| 20260905195004 | 36 | 228 | 4.8 | 9.7 | 0.00 | 0.13 | 0.13 | 46 | 1011.8 |
| 20260905194504 | 36 | 245 | 3.2 | 9.7 | 0.00 | 0.13 | 0.13 | 46 | 1011.9 |
| 20260905194004 | 36 | 325 | 1.6 | 6.4 | 0.00 | 0.13 | 0.13 | 46 | 1011.9 |
| 20260905193504 | 36 | 275 | 4.8 | 11.3 | 0.00 | 0.13 | 0.13 | 45 | 1012.0 |
| 20260905193004 | 36 | 251 | 4.8 | 11.3 | 0.00 | 0.13 | 0.13 | 46 | 1012.1 |
| 20260905192504 | 36 | 254 | 4.8 | 11.3 | 0.00 | 0.13 | 0.13 | 47 | 1012.2 |
| 20260905191504 | 35 | 204 | 4.8 | 9.7 | 0.00 | 0.13 | 0.13 | 48 | 1012.3 |
| 20260905190504 | 35 | 276 | 1.6 | 11.3 | 0.00 | 0.13 | 0.13 | 48 | 1012.5 |
| 20260905190004 | 35 | 255 | 3.2 | 6.4 | 0.00 | 0.13 | 0.13 | 47 | 1012.5 |
| 20260905185504 | 35 | 187 | 4.8 | 11.3 | 0.00 | 0.13 | 0.13 | 48 | 1012.5 |
| 20260905185004 | 35 | 211 | 4.8 | 11.3 | 0.00 | 0.13 | 0.13 | 45 | 1012.6 |
| 20260905184504 | 35 | 303 | 3.2 | 9.7 | 0.00 | 0.13 | 0.13 | 47 | 1012.6 |
| 20260905183504 | 35 | 236 | 3.2 | 8.0 | 0.00 | 0.13 | 0.13 | 47 | 1012.8 |
| 20260905183004 | 35 | 240 | 3.2 | 9.7 | 0.00 | 0.13 | 0.13 | 47 | 1012.9 |
| 20260905182504 | 35 | 149 | 3.2 | 9.7 | 0.00 | 0.13 | 0.13 | 46 | 1013.0 |
| 20260905182004 | 35 | 89 | 3.2 | 8.0 | 0.00 | 0.13 | 0.13 | 49 | 1013.1 |
| 20260905181504 | 35 | 111 | 3.2 | 8.0 | 0.00 | 0.13 | 0.13 | 49 | 1013.1 |
| 20260905181004 | 34 | 112 | 3.2 | 8.0 | 0.00 | 0.13 | 0.13 | 48 | 1013.1 |
| 20260905180504 | 34 | 128 | 3.2 | 11.3 | 0.00 | 0.13 | 0.13 | 50 | 1013.2 |
| 20260905180004 | 34 | 149 | 3.2 | 11.3 | 0.00 | 0.13 | 0.13 | 49 | 1013.4 |
| 20260905175504 | 34 | 175 | 3.2 | 8.0 | 0.00 | 0.13 | 0.13 | 49 | 1013.3 |
| 20260905175004 | 34 | 196 | 4.8 | 11.3 | 0.00 | 0.13 | 0.13 | 49 | 1013.3 |
| 20260905174504 | 33 | 199 | 4.8 | 12.9 | 0.00 | 0.13 | 0.13 | 49 | 1013.4 |
| 20260905173505 | 33 | 194 | 3.2 | 9.7 | 0.00 | 0.13 | 0.13 | 51 | 1013.3 |
| 20260905172004 | 33 | 115 | 4.8 | 12.9 | 0.00 | 0.13 | 0.13 | 51 | 1013.5 |
| 20260905171504 | 33 | 126 | 3.2 | 12.9 | 0.00 | 0.13 | 0.13 | 51 | 1013.6 |
| 20260905171004 | 33 | 143 | 3.2 | 11.3 | 0.00 | 0.13 | 0.13 | 53 | 1013.5 |
| 20260905170503 | 32 | 122 | 4.8 | 12.9 | 0.00 | 0.13 | 0.13 | 53 | 1013.6 |
| 20260905170004 | 32 | 114 | 6.4 | 12.9 | 0.00 | 0.13 | 0.13 | 52 | 1013.8 |
| 20260905165504 | 32 | 127 | 6.4 | 16.1 | 0.00 | 0.13 | 0.13 | 53 | 1013.9 |
| 20260905165004 | 32 | 138 | 4.8 | 16.1 | 0.00 | 0.13 | 0.13 | 53 | 1014.1 |
| 20260905164504 | 32 | 141 | 4.8 | 14.5 | 0.00 | 0.13 | 0.13 | 55 | 1014.3 |
| 20260905164005 | 32 | 124 | 6.4 | 14.5 | 0.00 | 0.13 | 0.13 | 54 | 1014.4 |
| 20260905163504 | 32 | 115 | 4.8 | 14.5 | 0.00 | 0.13 | 0.13 | 56 | 1014.3 |
| 20260905163004 | 32 | 124 | 4.8 | 11.3 | 0.00 | 0.13 | 0.13 | 55 | 1014.3 |
| 20260905162504 | 32 | 130 | 4.8 | 14.5 | 0.00 | 0.13 | 0.13 | 55 | 1014.4 |
| 20260905161504 | 31 | 142 | 3.2 | 9.7 | 0.00 | 0.13 | 0.13 | 57 | 1014.3 |
| 20260905161005 | 31 | 126 | 4.8 | 11.3 | 0.00 | 0.13 | 0.13 | 58 | 1014.3 |
| 20260905160504 | 31 | 121 | 4.8 | 12.9 | 0.00 | 0.13 | 0.13 | 56 | 1014.3 |
| 20260905155505 | 31 | 140 | 4.8 | 14.5 | 0.00 | 0.13 | 0.13 | 59 | 1014.3 |
| 20260905155004 | 30 | 132 | 4.8 | 12.9 | 0.00 | 0.13 | 0.13 | 61 | 1014.4 |
| 20260905154504 | 30 | 128 | 4.8 | 12.9 | 0.00 | 0.13 | 0.13 | 60 | 1014.4 |
| 20260905154004 | 30 | 105 | 3.2 | 12.9 | 0.00 | 0.13 | 0.13 | 61 | 1014.6 |
| 20260905153504 | 30 | 112 | 4.8 | 14.5 | 0.00 | 0.13 | 0.13 | 61 | 1014.6 |
| 20260905153004 | 30 | 130 | 6.4 | 14.5 | 0.00 | 0.13 | 0.13 | 62 | 1014.6 |
| 20260905152504 | 29 | 134 | 4.8 | 14.5 | 0.00 | 0.13 | 0.13 | 62 | 1014.5 |
| 20260905152004 | 29 | 132 | 4.8 | 12.9 | 0.00 | 0.13 | 0.13 | 65 | 1014.6 |
| 20260905151504 | 28 | 126 | 6.4 | 19.3 | 0.00 | 0.13 | 0.13 | 64 | 1014.5 |
| 20260905151004 | 28 | 124 | 8.0 | 19.3 | 0.00 | 0.13 | 0.13 | 64 | 1014.5 |
| 20260905150504 | 28 | 120 | 8.0 | 14.5 | 0.00 | 0.13 | 0.13 | 66 | 1014.5 |
| 20260905145504 | 28 | 95 | 4.8 | 14.5 | 0.00 | 0.13 | 0.13 | 68 | 1014.8 |
| 20260905145004 | 27 | 88 | 4.8 | 12.9 | 0.00 | 0.13 | 0.13 | 68 | 1014.8 |
| 20260905144504 | 27 | 104 | 6.4 | 14.5 | 0.00 | 0.13 | 0.13 | 70 | 1014.8 |
| 20260905144004 | 27 | 106 | 4.8 | 14.5 | 0.00 | 0.13 | 0.13 | 72 | 1014.8 |
| 20260905143004 | 26 | 90 | 3.2 | 12.9 | 0.03 | 0.13 | 0.13 | 74 | 1014.9 |
| 20260905142504 | 26 | 80 | 3.2 | 12.9 | 0.03 | 0.13 | 0.13 | 75 | 1014.9 |
| 20260905142004 | 25 | 80 | 3.2 | 9.7 | 0.03 | 0.13 | 0.13 | 76 | 1014.9 |
| 20260905141004 | 25 | 62 | 3.2 | 12.9 | 0.03 | 0.13 | 0.13 | 78 | 1015.0 |
| 20260905140503 | 25 | 68 | 3.2 | 16.1 | 0.03 | 0.13 | 0.13 | 79 | 1015.1 |
| 20260905140004 | 25 | 67 | 4.8 | 16.1 | 0.03 | 0.13 | 0.13 | 79 | 1015.1 |
| 20260905135506 | 25 | 67 | 4.8 | 12.9 | 0.03 | 0.13 | 0.13 | 79 | 1015.1 |
| 20260905135004 | 25 | 71 | 4.8 | 12.9 | 0.03 | 0.13 | 0.13 | 79 | 1015.3 |
| 20260905134004 | 25 | 72 | 4.8 | 14.5 | 0.03 | 0.13 | 0.13 | 80 | 1015.4 |
| 20260905133503 | 25 | 59 | 6.4 | 16.1 | 0.05 | 0.10 | 0.10 | 80 | 1015.3 |
| 20260905133004 | 25 | 44 | 4.8 | 16.1 | 0.10 | 0.10 | 0.10 | 81 | 1015.5 |
| 20260905132504 | 25 | 49 | 3.2 | 14.5 | 0.10 | 0.10 | 0.10 | 82 | 1015.7 |
| 20260905131503 | 24 | 58 | 4.8 | 16.1 | 0.10 | 0.10 | 0.10 | 83 | 1015.7 |
| 20260905131004 | 24 | 53 | 4.8 | 16.1 | 0.10 | 0.10 | 0.10 | 83 | 1015.6 |
| 20260905130503 | 24 | 54 | 4.8 | 22.5 | 0.10 | 0.10 | 0.10 | 83 | 1015.4 |
| 20260905130004 | 24 | 56 | 4.8 | 22.5 | 0.10 | 0.10 | 0.10 | 82 | 1015.2 |
| 20260905125504 | 25 | 51 | 3.2 | 11.3 | 0.10 | 0.10 | 0.10 | 82 | 1015.5 |
| 20260905125004 | 25 | 58 | 3.2 | 12.9 | 0.10 | 0.10 | 0.10 | 82 | 1015.5 |
| 20260905124503 | 25 | 65 | 3.2 | 14.5 | 0.10 | 0.10 | 0.10 | 81 | 1015.5 |
| 20260905124005 | 25 | 57 | 3.2 | 14.5 | 0.10 | 0.10 | 0.10 | 80 | 1015.3 |
| 20260905123503 | 25 | 52 | 3.2 | 8.0 | 0.03 | 0.03 | 0.03 | 79 | 1015.2 |
| 20260905122505 | 25 | 130 | 3.2 | 8.0 | 0.00 | 0.00 | 0.00 | 79 | 1014.6 |
| 20260905122004 | 25 | 130 | 1.6 | 8.0 | 0.00 | 0.00 | 0.00 | 79 | 1014.5 |
| 20260905121503 | 25 | 132 | 1.6 | 8.0 | 0.00 | 0.00 | 0.00 | 79 | 1014.7 |
| 20260905121004 | 25 | 127 | 3.2 | 8.0 | 0.00 | 0.00 | 0.00 | 79 | 1014.5 |
| 20260905120503 | 25 | 119 | 3.2 | 6.4 | 0.00 | 0.00 | 0.00 | 79 | 1014.3 |
| 20260905120004 | 25 | 98 | 1.6 | 6.4 | 0.00 | 0.00 | 0.00 | 79 | 1014.3 |
| 20260905115004 | 25 | 64 | 4.8 | 17.7 | 0.00 | 0.00 | 0.00 | 78 | 1014.4 |
| 20260905114503 | 25 | 63 | 4.8 | 16.1 | 0.00 | 0.00 | 0.00 | 79 | 1014.4 |
| 20260905113504 | 25 | 0 | 0.0 | 4.8 | 0.00 | 0.00 | 0.00 | 79 | 1014.2 |
| 20260905113003 | 25 | 0 | 0.0 | 3.2 | 0.00 | 0.00 | 0.00 | 79 | 1014.0 |
| 20260905112504 | 25 | 66 | 1.6 | 8.0 | 0.00 | 0.00 | 0.00 | 80 | 1013.9 |
| 20260905112003 | 25 | 67 | 3.2 | 8.0 | 0.00 | 0.00 | 0.00 | 80 | 1013.8 |
| 20260905111504 | 25 | 65 | 1.6 | 8.0 | 0.00 | 0.00 | 0.00 | 80 | 1014.0 |
| 20260905111004 | 26 | 64 | 1.6 | 6.4 | 0.00 | 0.00 | 0.00 | 80 | 1014.0 |
| 20260905110503 | 26 | 72 | 3.2 | 11.3 | 0.00 | 0.00 | 0.00 | 80 | 1013.9 |
| 20260905110003 | 26 | 71 | 3.2 | 11.3 | 0.00 | 0.00 | 0.00 | 80 | 1013.7 |
| 20260905105504 | 26 | 53 | 3.2 | 11.3 | 0.00 | 0.00 | 0.00 | 81 | 1013.8 |
| 20260905105004 | 26 | 28 | 4.8 | 11.3 | 0.00 | 0.00 | 0.00 | 80 | 1013.7 |
| 20260905104503 | 26 | 17 | 3.2 | 9.7 | 0.00 | 0.00 | 0.00 | 80 | 1013.7 |
| 20260905104004 | 26 | 13 | 1.6 | 8.0 | 0.00 | 0.00 | 0.00 | 79 | 1013.3 |
| 20260905103004 | 26 | 0 | 0.0 | 0.0 | 0.00 | 0.00 | 0.00 | 79 | 1012.8 |
| 20260905102504 | 26 | 0 | 0.0 | 0.0 | 0.00 | 0.00 | 0.00 | 78 | 1012.8 |
| 20260905102003 | 26 | 0 | 0.0 | 0.0 | 0.00 | 0.00 | 0.00 | 78 | 1012.8 |
| 20260905101503 | 26 | 0 | 0.0 | 0.0 | 0.00 | 0.00 | 0.00 | 78 | 1013.0 |
| 20260905101004 | 26 | 0 | 0.0 | 0.0 | 0.00 | 0.00 | 0.00 | 78 | 1013.0 |
| 20260905100503 | 26 | 0 | 0.0 | 0.0 | 0.00 | 0.00 | 0.00 | 78 | 1013.0 |
| 20260905095504 | 26 | 0 | 0.0 | 0.0 | 0.00 | 0.00 | 0.00 | 78 | 1013.0 |
| 20260905094503 | 26 | 0 | 0.0 | 0.0 | 0.00 | 0.00 | 0.00 | 77 | 1013.0 |
| 20260905094004 | 27 | 0 | 0.0 | 0.0 | 0.00 | 0.00 | 0.00 | 77 | 1013.0 |
| 20260905093503 | 27 | 0 | 0.0 | 0.0 | 0.00 | 0.00 | 0.00 | 77 | 1013.0 |
| 20260905093004 | 27 | 0 | 0.0 | 3.2 | 0.00 | 0.00 | 0.00 | 77 | 1012.9 |
| 20260905092004 | 27 | 317 | 1.6 | 4.8 | 0.00 | 0.00 | 0.00 | 77 | 1012.6 |
| 20260905091503 | 27 | 318 | 1.6 | 4.8 | 0.00 | 0.00 | 0.00 | 77 | 1012.5 |
| 20260905091005 | 27 | 0 | 0.0 | 1.6 | 0.00 | 0.00 | 0.00 | 76 | 1012.7 |
| 20260905090503 | 27 | 0 | 0.0 | 6.4 | 0.00 | 0.00 | 0.00 | 77 | 1012.8 |
| 20260905090003 | 27 | 321 | 1.6 | 9.7 | 0.00 | 0.00 | 0.00 | 77 | 1012.8 |
| 20260905085504 | 27 | 324 | 1.6 | 9.7 | 0.00 | 0.00 | 0.00 | 78 | 1012.9 |
| 20260905085004 | 27 | 356 | 1.6 | 9.7 | 0.00 | 0.00 | 0.00 | 79 | 1012.9 |
| 20260905084504 | 27 | 8 | 1.6 | 9.7 | 0.00 | 0.00 | 0.00 | 79 | 1012.9 |
| 20260905084004 | 27 | 323 | 1.6 | 11.3 | 0.00 | 0.00 | 0.00 | 80 | 1012.7 |
| 20260905083503 | 27 | 310 | 1.6 | 11.3 | 0.00 | 0.00 | 0.00 | 80 | 1012.7 |
| 20260905083003 | 27 | 153 | 1.6 | 4.8 | 0.00 | 0.00 | 0.00 | 80 | 1012.4 |
| 20260905082504 | 27 | 155 | 1.6 | 4.8 | 0.00 | 0.00 | 0.00 | 80 | 1012.4 |
| 20260905081504 | 26 | 170 | 1.6 | 4.8 | 0.00 | 0.00 | 0.00 | 80 | 1012.5 |
| 20260905081004 | 26 | 183 | 1.6 | 4.8 | 0.00 | 0.00 | 0.00 | 81 | 1012.5 |
| 20260905080504 | 26 | 0 | 0.0 | 3.2 | 0.00 | 0.00 | 0.00 | 81 | 1012.5 |
| 20260905080004 | 26 | 0 | 0.0 | 4.8 | 0.00 | 0.00 | 0.00 | 81 | 1012.6 |
| 20260905075504 | 26 | 311 | 1.6 | 9.7 | 0.00 | 0.00 | 0.00 | 81 | 1012.7 |
| 20260905075003 | 26 | 310 | 1.6 | 9.7 | 0.00 | 0.00 | 0.00 | 81 | 1012.6 |
| 20260905074004 | 26 | 0 | 0.0 | 0.0 | 0.00 | 0.00 | 0.00 | 80 | 1012.5 |
| 20260905073504 | 26 | 0 | 0.0 | 0.0 | 0.00 | 0.00 | 0.00 | 80 | 1012.6 |
| 20260905073004 | 26 | 0 | 0.0 | 0.0 | 0.00 | 0.00 | 0.00 | 80 | 1012.7 |
| 20260905072504 | 26 | 0 | 0.0 | 0.0 | 0.00 | 0.00 | 0.00 | 80 | 1012.7 |
| 20260905072003 | 26 | 0 | 0.0 | 0.0 | 0.00 | 0.00 | 0.00 | 80 | 1012.7 |
| 20260905071503 | 26 | 0 | 0.0 | 0.0 | 0.00 | 0.00 | 0.00 | 80 | 1012.7 |
| 20260905070004 | 26 | 0 | 0.0 | 0.0 | 0.00 | 0.00 | 0.00 | 79 | 1012.9 |
| 20260905065504 | 26 | 0 | 0.0 | 0.0 | 0.00 | 0.00 | 0.00 | 79 | 1012.9 |
| 20260905065003 | 26 | 0 | 0.0 | 0.0 | 0.00 | 0.00 | 0.00 | 79 | 1013.0 |
| 20260905064504 | 26 | 0 | 0.0 | 0.0 | 0.00 | 0.00 | 0.00 | 79 | 1013.1 |
| 20260905064005 | 26 | 0 | 0.0 | 0.0 | 0.00 | 0.00 | 0.00 | 79 | 1013.2 |
| 20260905063003 | 26 | 0 | 0.0 | 0.0 | 0.00 | 0.00 | 0.00 | 79 | 1013.3 |
| 20260905062504 | 26 | 0 | 0.0 | 0.0 | 0.00 | 0.00 | 0.00 | 79 | 1013.4 |
| 20260905062003 | 27 | 0 | 0.0 | 0.0 | 0.00 | 0.00 | 0.00 | 78 | 1013.5 |
| 20260905061503 | 26 | 0 | 0.0 | 0.0 | 0.00 | 0.00 | 0.00 | 77 | 1013.5 |
| 20260905060004 | 27 | 0 | 0.0 | 0.0 | 0.00 | 0.00 | 0.00 | 76 | 1013.7 |
| 20260905055504 | 27 | 0 | 0.0 | 0.0 | 0.00 | 0.00 | 0.00 | 76 | 1013.7 |
| 20260905055004 | 27 | 0 | 0.0 | 0.0 | 0.00 | 0.00 | 0.00 | 76 | 1013.8 |
| 20260905054503 | 27 | 0 | 0.0 | 0.0 | 0.00 | 0.00 | 0.00 | 76 | 1013.8 |
| 20260905054004 | 27 | 0 | 0.0 | 0.0 | 0.00 | 0.00 | 0.00 | 76 | 1013.8 |
| 20260905053503 | 27 | 0 | 0.0 | 0.0 | 0.00 | 0.00 | 0.00 | 74 | 1013.8 |
| 20260905053004 | 27 | 0 | 0.0 | 0.0 | 0.00 | 0.00 | 0.00 | 74 | 1013.8 |
| 20260905052504 | 27 | 0 | 0.0 | 0.0 | 0.00 | 0.00 | 0.00 | 74 | 1013.8 |
| 20260905052004 | 27 | 0 | 0.0 | 0.0 | 0.00 | 0.00 | 0.00 | 74 | 1013.8 |
| 20260905051504 | 27 | 0 | 0.0 | 0.0 | 0.00 | 0.00 | 0.00 | 73 | 1013.8 |
| 20260905050504 | 27 | 0 | 0.0 | 0.0 | 0.00 | 0.00 | 0.00 | 73 | 1013.7 |
| 20260905050003 | 27 | 0 | 0.0 | 0.0 | 0.00 | 0.00 | 0.00 | 73 | 1013.8 |
| 20260905045505 | 27 | 0 | 0.0 | 0.0 | 0.00 | 0.00 | 0.00 | 73 | 1013.8 |
| 20260905045004 | 27 | 0 | 0.0 | 0.0 | 0.00 | 0.00 | 0.00 | 73 | 1013.8 |
| 20260905044504 | 28 | 0 | 0.0 | 0.0 | 0.00 | 0.00 | 0.00 | 73 | 1013.8 |
| 20260905044004 | 28 | 0 | 0.0 | 0.0 | 0.00 | 0.00 | 0.00 | 73 | 1013.8 |
| 20260905043003 | 28 | 0 | 0.0 | 0.0 | 0.00 | 0.00 | 0.00 | 72 | 1013.9 |
| 20260905042504 | 28 | 0 | 0.0 | 0.0 | 0.00 | 0.00 | 0.00 | 72 | 1013.9 |
| 20260905042004 | 28 | 0 | 0.0 | 0.0 | 0.00 | 0.00 | 0.00 | 72 | 1013.8 |
| 20260905041504 | 28 | 0 | 0.0 | 0.0 | 0.00 | 0.00 | 0.00 | 72 | 1013.8 |
| 20260905041004 | 28 | 0 | 0.0 | 0.0 | 0.00 | 0.00 | 0.00 | 72 | 1013.8 |
| 20260905040503 | 28 | 0 | 0.0 | 0.0 | 0.00 | 0.00 | 0.00 | 72 | 1013.9 |
| 20260905040005 | 28 | 0 | 0.0 | 0.0 | 0.00 | 0.00 | 0.00 | 72 | 1013.8 |
| 20260905035504 | 28 | 0 | 0.0 | 0.0 | 0.00 | 0.00 | 0.00 | 71 | 1013.8 |
| 20260905034503 | 28 | 0 | 0.0 | 0.0 | 0.00 | 0.00 | 0.00 | 70 | 1013.8 |
| 20260905034004 | 28 | 0 | 0.0 | 0.0 | 0.00 | 0.00 | 0.00 | 70 | 1013.8 |
| 20260905033503 | 29 | 0 | 0.0 | 0.0 | 0.00 | 0.00 | 0.00 | 70 | 1013.8 |
| 20260905031504 | 29 | 0 | 0.0 | 0.0 | 0.00 | 0.00 | 0.00 | 68 | 1013.9 |
| 20260905031004 | 29 | 0 | 0.0 | 0.0 | 0.00 | 0.00 | 0.00 | 68 | 1013.9 |
| 20260905030504 | 30 | 0 | 0.0 | 0.0 | 0.00 | 0.00 | 0.00 | 68 | 1014.0 |
| 20260905030004 | 30 | 0 | 0.0 | 0.0 | 0.00 | 0.00 | 0.00 | 68 | 1014.0 |
| 20260905025504 | 30 | 0 | 0.0 | 0.0 | 0.00 | 0.00 | 0.00 | 68 | 1014.0 |
| 20260905025003 | 30 | 0 | 0.0 | 0.0 | 0.00 | 0.00 | 0.00 | 68 | 1014.0 |
| 20260905024503 | 30 | 0 | 0.0 | 0.0 | 0.00 | 0.00 | 0.00 | 67 | 1014.0 |
| 20260905024004 | 30 | 0 | 0.0 | 3.2 | 0.00 | 0.00 | 0.00 | 67 | 1013.9 |
| 20260905022503 | 30 | 0 | 0.0 | 0.0 | 0.00 | 0.00 | 0.00 | 66 | 1013.7 |
| 20260905021503 | 30 | 102 | 1.6 | 3.2 | 0.00 | 0.00 | 0.00 | 66 | 1013.8 |
| 20260905021004 | 31 | 0 | 0.0 | 3.2 | 0.00 | 0.00 | 0.00 | 65 | 1013.8 |
| 20260905020503 | 31 | 0 | 0.0 | 3.2 | 0.00 | 0.00 | 0.00 | 64 | 1013.8 |
| 20260905020003 | 31 | 0 | 0.0 | 0.0 | 0.00 | 0.00 | 0.00 | 64 | 1013.8 |
| 20260905015504 | 31 | 0 | 0.0 | 0.0 | 0.00 | 0.00 | 0.00 | 64 | 1013.7 |
| 20260905015004 | 31 | 0 | 0.0 | 0.0 | 0.00 | 0.00 | 0.00 | 62 | 1013.7 |
| 20260905014504 | 31 | 0 | 0.0 | 0.0 | 0.00 | 0.00 | 0.00 | 62 | 1013.6 |
| 20260905014004 | 31 | 0 | 0.0 | 0.0 | 0.00 | 0.00 | 0.00 | 62 | 1013.6 |
| 20260905013004 | 31 | 0 | 0.0 | 0.0 | 0.00 | 0.00 | 0.00 | 61 | 1013.5 |
| 20260905012504 | 32 | 0 | 0.0 | 0.0 | 0.00 | 0.00 | 0.00 | 61 | 1013.4 |
| 20260905012004 | 32 | 0 | 0.0 | 0.0 | 0.00 | 0.00 | 0.00 | 60 | 1013.3 |
| 20260905011503 | 32 | 0 | 0.0 | 3.2 | 0.00 | 0.00 | 0.00 | 59 | 1013.2 |
| 20260905010503 | 32 | 0 | 0.0 | 0.0 | 0.00 | 0.00 | 0.00 | 58 | 1013.2 |
| 20260905010004 | 32 | 0 | 0.0 | 0.0 | 0.00 | 0.00 | 0.00 | 58 | 1013.2 |
| 20260905005504 | 32 | 0 | 0.0 | 0.0 | 0.00 | 0.00 | 0.00 | 57 | 1013.2 |
| 20260905005004 | 33 | 0 | 0.0 | 1.6 | 0.00 | 0.00 | 0.00 | 57 | 1013.1 |
| 20260905004004 | 33 | 0 | 0.0 | 3.2 | 0.00 | 0.00 | 0.00 | 56 | 1013.1 |
| 20260905003003 | 33 | 83 | 3.2 | 4.8 | 0.00 | 0.00 | 0.00 | 55 | 1013.0 |
| 20260905002506 | 33 | 73 | 1.6 | 4.8 | 0.00 | 0.00 | 0.00 | 55 | 1012.9 |
| 20260905002004 | 34 | 0 | 0.0 | 1.6 | 0.00 | 0.00 | 0.00 | 53 | 1012.7 |
| 20260905001503 | 34 | 0 | 0.0 | 0.0 | 0.00 | 0.00 | 0.00 | 52 | 1012.8 |
| 20260905001004 | 34 | 0 | 0.0 | 0.0 | 0.00 | 0.00 | 0.00 | 51 | 1012.7 |
| 20260905000503 | 35 | 0 | 0.0 | 0.0 | 0.00 | 0.00 | 0.00 | 51 | 1012.8 |
| 20260905000003 | 35 | 0 | 0.0 | 0.0 | 0.00 | 0.00 | 0.00 | 51 | 1012.8 |
| 20260904235504 | 35 | 0 | 0.0 | 0.0 | 0.00 | 0.00 | 0.00 | 49 | 1012.7 |
| 20260904235004 | 35 | 333 | 1.6 | 6.4 | 0.00 | 0.00 | 0.00 | 49 | 1012.6 |
| 20260904234504 | 35 | 280 | 1.6 | 6.4 | 0.00 | 0.00 | 0.00 | 48 | 1012.7 |
| 20260904234004 | 35 | 239 | 1.6 | 4.8 | 0.00 | 0.00 | 0.00 | 47 | 1012.7 |
| 20260904233503 | 35 | 229 | 1.6 | 6.4 | 0.00 | 0.00 | 0.00 | 47 | 1012.8 |
| 20260904233004 | 35 | 193 | 3.2 | 6.4 | 0.00 | 0.00 | 0.00 | 47 | 1012.8 |
| 20260904232504 | 36 | 74 | 1.6 | 4.8 | 0.00 | 0.00 | 0.00 | 47 | 1012.8 |
| 20260904232004 | 36 | 0 | 0.0 | 3.2 | 0.00 | 0.00 | 0.00 | 46 | 1012.9 |
| 20260904231503 | 36 | 67 | 1.6 | 4.8 | 0.00 | 0.00 | 0.00 | 45 | 1012.9 |
| 20260904231004 | 36 | 49 | 1.6 | 6.4 | 0.00 | 0.00 | 0.00 | 45 | 1012.8 |
| 20260904230503 | 36 | 20 | 1.6 | 6.4 | 0.00 | 0.00 | 0.00 | 45 | 1012.9 |
| 20260904225504 | 36 | 8 | 1.6 | 6.4 | 0.00 | 0.00 | 0.00 | 45 | 1012.9 |
| 20260904225004 | 37 | 356 | 3.2 | 9.7 | 0.00 | 0.00 | 0.00 | 44 | 1013.1 |
| 20260904224503 | 37 | 344 | 1.6 | 9.7 | 0.00 | 0.00 | 0.00 | 43 | 1013.1 |
| 20260904224004 | 37 | 332 | 1.6 | 6.4 | 0.00 | 0.00 | 0.00 | 43 | 1013.2 |
| 20260904223503 | 37 | 307 | 1.6 | 6.4 | 0.00 | 0.00 | 0.00 | 44 | 1013.2 |
| 20260904223004 | 37 | 311 | 1.6 | 6.4 | 0.00 | 0.00 | 0.00 | 44 | 1013.3 |
| 20260904222507 | 37 | 353 | 3.2 | 9.7 | 0.00 | 0.00 | 0.00 | 42 | 1013.3 |
| 20260904222004 | 37 | 1 | 4.8 | 9.7 | 0.00 | 0.00 | 0.00 | 43 | 1013.2 |
| 20260904221503 | 38 | 357 | 3.2 | 11.3 | 0.00 | 0.00 | 0.00 | 44 | 1013.3 |
| 20260904221004 | 38 | 5 | 3.2 | 11.3 | 0.00 | 0.00 | 0.00 | 44 | 1013.3 |
| 20260904220004 | 37 | 322 | 1.6 | 4.8 | 0.00 | 0.00 | 0.00 | 43 | 1013.2 |
| 20260904215505 | 37 | 319 | 3.2 | 11.3 | 0.00 | 0.00 | 0.00 | 44 | 1013.2 |
| 20260904215004 | 37 | 328 | 3.2 | 11.3 | 0.00 | 0.00 | 0.00 | 44 | 1013.2 |
| 20260904214004 | 37 | 310 | 4.8 | 12.9 | 0.00 | 0.00 | 0.00 | 44 | 1013.3 |
| 20260904213004 | 37 | 10 | 4.8 | 8.0 | 0.00 | 0.00 | 0.00 | 43 | 1013.3 |
| 20260904212504 | 37 | 350 | 3.2 | 11.3 | 0.00 | 0.00 | 0.00 | 45 | 1013.2 |
| 20260904212004 | 37 | 343 | 4.8 | 12.9 | 0.00 | 0.00 | 0.00 | 45 | 1013.3 |
| 20260904211503 | 37 | 351 | 3.2 | 12.9 | 0.00 | 0.00 | 0.00 | 45 | 1013.3 |
| 20260904211004 | 37 | 342 | 3.2 | 9.7 | 0.00 | 0.00 | 0.00 | 45 | 1013.4 |
| 20260904210503 | 37 | 352 | 3.2 | 9.7 | 0.00 | 0.00 | 0.00 | 43 | 1013.4 |
| 20260904205504 | 37 | 4 | 4.8 | 11.3 | 0.00 | 0.00 | 0.00 | 46 | 1013.5 |